Tracking 35331 objects as of 16-Sep-2026
HD Live streaming from Space Station
objects crossing your sky now

OBJECT A

Track OBJECT A now!
10-day predictions


NORAD ID: 100237
Int'l Code: 2026-178A
Launch date: August 5, 2026
Source: People's Republic of China (PRC)
Launch site: Yellow Sea Launch Area, China (YSLA)
Your satellite tracking list
Your tracking list is empty




NASA's NSSDC Master Catalog

Two Line Element Set (TLE):
1 A0237U 26178A   26258.93837885  .00000050  00000-0  35435-4 0  9999
2 A0237  98.5466 332.5616 0025412 171.9893 188.1700 14.30605411  5982
Source of the keplerian elements: AFSPC